Tracking 20093 objects as of 14-Dec-2019
HD Live streaming from Space Station
objects crossing your sky now

COSMOS 2251 DEB

Track COSMOS 2251 DEB now!
10-day predictions


NORAD ID: 34614
Int'l Code: 1993-036WK
Perigee: 750.1 km
Apogee: 1,146.8 km
Inclination: 73.9 °
Period: 103.9 minutes
Semi major axis: 7319 km
RCS: 0.0176 m2 (small)
Launch date: June 16, 1993
Source: Commonwealth of Independent States (former USSR) (CIS)
Launch site: PLESETSK MISSILE AND SPACE COMPLEX (PKMTR)

Note: This is SATELLITE DEBRIS
aabbcc
Your satellite tracking list
Your tracking list is empty




NASA's NSSDC Master Catalog

Two Line Element Set (TLE):
1 34614U 93036WK  19347.57684182  .00000616  00000-0  41531-3 0  9994
2 34614  73.8907 185.2341 0270979 239.3711 151.1310 13.86398255542731
Source of the keplerian elements: AFSPC